{"data":{"norad_id":57104,"intl_designator":"2023-090D","name":"STARLINK-6130","alt_names":[],"object_type":"PAYLOAD","status":"ACTIVE","operator":null,"country":"US","launch_date":"2023-06-23","launch_site_code":"AFETR","launch_vehicle":null,"mission":null,"orbit_class":"UNKNOWN","rcs_meters":null,"size_class":null,"mass_kg":null,"dimensions":null,"purposes":["comms"],"wikipedia_slug":null,"has_3d_model":false,"image_url":null,"decayed_at":null,"tle_current":{"epoch":"2026-09-20T08:41:17.262240Z","epoch_age_seconds":132880,"freshness":"FRESH","line1":"1 57104U 23090D   26263.36200535 -.00003227  00000+0 -10789-3 0  9997","line2":"2 57104  43.0014 262.2708 0001085 279.9568  80.1161 15.27554585180090","mean_motion":15.27554585,"eccentricity":0.0001085,"inclination_deg":43.0014,"raan_deg":262.2708,"arg_perigee_deg":279.9568,"mean_anomaly_deg":80.1161,"bstar":-0.00010789,"rev_number":18009,"period_min":94.26831709585,"perigee_km":482.38075179922,"apogee_km":483.86964569634,"semimajor_km":6861.2621987478,"source":"CELESTRAK","updated_at":"2026-09-21T09:00:33.558407Z"}}}